KC4QLP Weather Reports


Display with metric or nautical units.
time (UTC)temp
F
wind
direction
speed
MPH
gust
MPH
rain 1hr
in
rain 24hr
in
rain mn
in
humidity
%
barometer
mb
20260504050014 52 90 1.0 1.0 0.00 0.00 0.00 45 1006.5
20260504043013 52 90 1.0 1.0 0.00 0.00 0.00 45 1006.9
20260504040013 52 90 1.0 1.0 0.00 0.00 0.00 45 1006.7
20260504033013 52 90 1.0 1.0 0.00 0.00 0.00 45 1007.1
20260504030013 52 90 1.0 1.0 0.00 0.00 0.00 45 1007.5
20260504023013 52 90 1.0 1.0 0.00 0.00 0.00 45 1006.9
20260504020013 52 90 1.0 1.0 0.00 0.00 0.00 45 1007.0
20260504013013 52 90 1.0 1.0 0.00 0.00 0.00 45 1007.0
20260504010013 52 90 1.0 1.0 0.00 0.00 0.00 45 1006.9
20260504003014 52 90 1.0 1.0 0.00 0.00 0.00 45 1006.6
20260504000013 52 90 1.0 1.0 0.00 0.00 0.00 45 1006.2
20260503233013 52 90 1.0 6.0 0.00 0.00 0.00 45 1006.2
20260503230014 53 319 0.0 8.0 0.00 0.00 0.00 44 1006.0
20260503223014 54 225 1.0 11.0 0.00 0.00 0.00 41 1005.7
20260503220013 55 176 1.0 15.0 0.00 0.00 0.00 38 1005.7
20260503213013 57 278 1.0 17.0 0.00 0.00 0.00 35 1005.7
20260503210014 56 224 3.0 15.0 0.00 0.00 0.00 34 1005.4
20260503203014 57 215 8.0 18.0 0.00 0.00 0.00 33 1005.6
20260503200014 57 283 2.0 13.0 0.00 0.00 0.00 33 1005.8
20260503193014 56 218 2.0 16.0 0.00 0.00 0.00 34 1006.3
20260503190014 55 158 6.0 16.0 0.00 0.00 0.00 34 1006.7
20260503183014 53 236 2.0 18.0 0.00 0.00 0.00 39 1007.0
20260503180014 52 228 6.0 11.0 0.00 0.00 0.00 42 1007.2
20260503173014 51 208 2.0 13.0 0.00 0.00 0.00 44 1007.4